Дата Пункты Температура Давл., мм. Влажн., % Ветер Погодные явления
Воздуха Воды Направл. Скорость
11.11.19 08:00 Одесса 14.0 14.0 761 80 Пн 0 20 ГОДИН
11.11.19 05:00 Одесса 15.0 14.0 760 81 Пн 0 17 ГОДИН
11.11.19 11:00 Одесса 18.0 14.0 759 67 З 2 11 ГОДИН
11.11.19 08:00 Одесса 15.0 14.0 758 93 Пд-З 3 08 ГОДИН
11.11.19 05:00 Одесса 14.0 14.0 758 96 Пд 2 05 ГОДИН
11.11.19 02:00 Одесса 14.0 14.0 758 94 Пд 5 02 ГОДИНИ
10.11.19 11:00 Одесса 15.0 14.0 758 92 Пд 3 23 ГОДИНИ
10.11.19 08:00 Одесса 15.0 14.0 758 91 Пд-С 5 20 ГОДИН
10.11.19 05:00 Одесса 14.0 14.0 758 95 Пд-С 3 17 ГОДИН
10.11.19 02:00 Одесса 13.0 14.0 759 93 С 5 14 ГОДИН
10.11.19 11:00 Одесса 14.0 14.0 760 92 Пд-С 5 11 ГОДИН
10.11.19 08:00 Одесса 15.0 14.0 760 95 Пд-С 3 08 ГОДИН
10.11.19 05:00 Одесса 14.0 14.0 760 97 Пд 3 05 ГОДИН
10.11.19 02:00 Одесса 14.0 14.0 760 100 Пд 4 02 ГОДИНИ
09.11.19 11:00 Одесса 14.0 14.0 760 97 Пд 2 23 ГОДИНИ
09.11.19 08:00 Одесса 14.0 14.0 760 97 Пд 4 20 ГОДИН
09.11.19 05:00 Одесса 15.0 14.0 760 95 Пд 4 17 ГОДИН
09.11.19 02:00 Одесса 16.0 14.0 760 87 Пд 5 14 ГОДИН
09.11.19 11:00 Одесса 16.0 14.0 760 87 Пд 4 11 ГОДИН
09.11.19 08:00 Одесса 16.0 14.0 760 88 Пд 4 08 ГОДИН
Количество строк
1 2 3 4 5 6 7 8 9 10
Page 4 of 553